Regional Weather Roundup
Issued by NWS Wakefield, VA

Home | Current Version | Previous Version | Text Only | Print | Product List | Glossary Off
Versions: 1 2 3 4 5 6 7 8 9 10 11 12 13 14 15 16 17 18 19 20 21 22 23 24 25 26 27

000
ASUS41 KAKQ 230315
RWRAKQ

REGIONAL WEATHER ROUNDUP
NATIONAL WEATHER SERVICE WAKEFIELD VA
1000 PM EST WED NOV 22 2017

Note: "fair" indicates few or no clouds below 12,000 feet with no
significant weather and/or obstructions to visibility. * = Denotes
station may not report precipitation (e.g., rain,snow,etc.),
thunder or fog.

VAZ042-051-052>054-056-230400-
NORTHERN VIRGINIA

CITY           SKY/WX    TMP DP  RH WIND       PRES   REMARKS
WASH NATIONAL  CLEAR     40  25  55 NW9       30.20R
DULLES         PTCLDY    36  23  59 NW10      30.20R
FORT BELVOIR   CLEAR     37  24  58 NW7       30.19R
QUANTICO       NOT AVBL
FREDERICKSBRG* CLEAR     39  26  58 N13G22    30.19S
STAFFORD*      CLEAR     35  24  63 NW12G18   30.23F
WARRENTON      NOT AVBL
CULPEPER*      CLEAR     37  21  53 N8        30.21F
MANASSAS*      CLEAR     35  22  58 NW7       30.21R
LEESBURG*      CLEAR     37  27  65 N6G21     30.21R
WINCHESTER     CLOUDY    34  23  64 W13       30.20R WCI  25
FRONT ROYAL*   PTCLDY    32  23  69 W3        30.19R
LURAY*         CLEAR     34  25  69 NE6       30.19S
$$

VAZ048-049-060>072-079>083-230400-
CENTRAL AND SOUTH CENTRAL VIRGINIA

CITY           SKY/WX    TMP DP  RH WIND       PRES   REMARKS
RICHMOND       PTCLDY    40  27  59 N7        30.17R
CHESTERFIELD*  NOT AVBL
PETERSBURG*    PTCLDY    41   1  19 N7        30.18R
HANOVER        CLOUDY    39  24  55 VRB7      30.19R
TAPPAHANNOCK*    N/A    N/A N/A N/A MISG        N/A
QUINTON*       FAIR      40  27  59 NW5       30.17R
CHARLOTTSVILLE CLEAR     38  24  57 NW6       30.18R
GORDONSVILLE*  CLEAR     35  25  67 CALM      30.18S
ORANGE*        CLEAR     34  25  69 CALM      30.18F
LOUISA*        CLEAR     35  24  62 NE3       30.22S
BUMPASS*       FAIR      38  23  54 N6        30.18S
FARMVILLE*     CLOUDY    37  28  69 CALM      30.17R
CREWE*         FAIR      37  27  68 NW3       30.16S
FORT PICKETT*  NOT AVBL
CHASE CITY*    FAIR      42  25  51 N3        30.16R
CLARKSVILLE*   FAIR      43  27  52 NE3       30.16R
SOUTH HILL*    PTCLDY    43  27  53 N9        30.21R
LAWRENCEVILLE* FAIR      42  25  49 CALM      30.16R
EMPORIA*       PTCLDY    41  28  60 NW6       30.17R
$$

VAZ088>098-230400-
SOUTHEAST VIRGINIA

CITY           SKY/WX    TMP DP  RH WIND       PRES   REMARKS
NORFOLK        PTCLDY    48  33  56 N12       30.13R
VIRGINIA BEACH NOT AVBL
NORFOLK NAVAL  NOT AVBL
WEST POINT*    CLOUDY    41  26  55 N6        30.19R
SALUDA*        FAIR      42  30  62 N13       30.16R
NEWPORT NEWS   CLOUDY    43  31  62 N7        30.15R
LANGLEY AFB    PTCLDY    45  31  58 N17G23    30.14R
FORT EUSTIS    CLOUDY    45  29  55 N12G17    30.13R
WILLIAMSBURG*  PTCLDY    45  30  57 N5        30.17R
HR EXEC AP*    NOT AVBL
FRANKLIN*      PTCLDY    43  29  58 N6        30.16R
US460-WAKEFLD  PTCLDY    43  29  57 CALM      30.17R
$$

VAZ020-022-025-037-045-230400-
WEST CENTRAL AND SOUTHWEST VIRGINIA

CITY           SKY/WX    TMP DP  RH WIND       PRES   REMARKS
STAUNTON*      CLOUDY    27  21  77 CALM      30.20S
WAYNESBORO*    CLEAR     32  22  67 NW5       30.17S
HOT SPRINGS VA CLOUDY    26  19  74 NW13G21   30.08S WCI  15
LYNCHBURG      CLOUDY    38  22  52 N9G18     30.14S
DANVILLE       CLOUDY    40  28  62 N6        30.17R
SOUTH BOSTON*  FAIR      42  24  49 N5        30.17S
MARTINSVILLE   PTCLDY    37  24  59 N5        30.18S
ROANOKE        CLEAR     35  23  61 N9        30.20F
BLACKSBURG     CLEAR     29  24  81 CALM      30.18F
DUBLIN*        CLEAR     33  25  73 N5        30.18S
MARION*        CLEAR     31  23  71 CALM      30.18S
HILLSVILLE*    CLOUDY    30  24  78 CALM      30.13S
RICHLANDS*     FAIR      31  23  74 CALM      30.17R
WISE*          CLEAR     30  27  86 CALM      30.17R
ABINGDON*      CLEAR     33  26  78 NE3       30.17S
$$

MDZ021>025-VAZ099-100-230400-
SOUTHERN MARYLAND AND THE DELMARVA PENINSULA

CITY           SKY/WX    TMP DP  RH WIND       PRES   REMARKS
PATUXENT RIVER NOT AVBL
BAY BRIDGE APT PTCLDY    41  27  56 N16G24    30.17R
LEONARDTOWN    CLEAR     39  27  60 NW6       30.18R
DOVER          CLEAR     39  31  71 NW16      30.13R
GEORGETOWN     CLEAR     42  26  53 VRB5      30.14R
EASTON         PTCLDY    41  25  52 N9G16     30.19R
CAMBRIDGE      PTCLDY    43  28  56 NW9G15    30.15R
SALISBURY      CLEAR     41  29  62 NW13      30.14R
OCEAN CITY     CLEAR     40  30  67 NW5       30.14R
WALLOPS ISLAND CLOUDY    42  31  64 NW7       30.14R
ACCOMACK*      PTCLDY    45  32  60 N10G22    30.13S
$$

NCZ012>017-030>032-230400-
NORTH CENTRAL AND EASTERN NORTH CAROLINA

CITY           SKY/WX    TMP DP  RH WIND       PRES   REMARKS
ROANOKE RAPIDS FAIR      45  32  61 N5        30.15R
RALEIGH        MOCLDY    47  25  42 N3        30.15R
ELIZABETH CITY CLEAR     48  37  65 N9        30.12R
AHOSKIE*       CLEAR     44  30  58 N5        30.15R
EDENTON*       CLEAR     48  36  61 N9        30.12R
CURRITUCK*     CLEAR     49  37  63 N13G18    30.12R
KILL DEVIL HLS CLEAR     51  38  61 N8G21     30.09R
MANTEO         CLEAR     51  39  65 NE14G22   30.11R
CAPE HATTERAS  CLEAR     55  45  68 NE9G21    30.08R
TARBORO*       NOT AVBL
GOLDSBORO      CLEAR     51  32  47 N10       30.09R
WASHINGTON     CLEAR     47  40  77 NE8       30.12R
GREENVILLE     CLEAR     46  37  71 N8        30.13R
NEW BERN       PTCLDY    44  43  96 E7        30.11R
WILMINGTON     CLEAR     50  38  63 N5        30.08R
$$

VAZ048-230400-
ELSEWHERE

CITY           SKY/WX    TMP DP  RH WIND       PRES   REMARKS
HARRISBURG PA  CLOUDY    37  21  52 NW13      30.16R
BALTIMORE      PTCLDY    37  23  56 NW7       30.17R
ANNAPOLIS      NOT AVBL
ANDREWS AFB    CLEAR     37  24  60 NW8       30.17R
PHILADELPHIA   PTCLDY    40  22  48 NW10      30.14R
HENDERSON NC   CLEAR     41  25  52 N3        30.15R
GREENSBORO     MOCLDY    43  26  51 NE6       30.14R
ROCKY MOUNT    CLEAR     47  34  60 N8        30.14R
$$

VAZ100-230400-
MARINE

STATION/POSITION TIME  TEMP    WIND        PRES    WAVE   SWELL
                       AIR SEA DIR/SP/G            HT/PER HT/PER
                 (UTC) (F)     (DEG/KT/KT) (MB)    (FT/S) (FT/S)
BRANDYWINE LGT   0248   44     330/ 19/ 25 1019.6R
CAPE MAY NJ      0248   43 51  340/ 11/ 21 1018.9R
LEWES DE         0248   45 51  330/ 24/ 28 1019.6R
15NM E FENWICK I 0250   47 58  320/ 21/ 27 1019.2R   6/ 6
OCEAN-CITY-INLET 0248   45 54  340/ 13/ 17 1020.4R
WACHAPREAGUE VA  0248   45 52  320/  4/ 11 1020.2R
THOMAS POINT MD  0300   41 51  310/ 13/ 13   N/A
GOOSES REEF MD   0250   44     330/ 19/ 25 1013.6R
COVE POINT MD    0248   43     350/ 21/ 29 1021.8R
SOLOMONS ISLAND  0248   42 53  330/ 14/ 17 1021.1R
BISHOPS HEAD MD  0248   42 51  330/ 10/ 12 1021.2R
PINEY POINT MD   0248          350/ 19/ 22   N/A
POTOMAC MD       0250   44     340/ 16/ 19 1020.6R
CAMBRIDGE MD     0236   43 50              1021.5R
LEWISETTA VA     0248   43 52  350/ 13/ 18 1021.3S
RAPPAHANNOCK LGT 0248          320/ 23/ 31 1020.9R
STINGRAY PT      0250   45     360/ 16/ 19 1021.1R
YORK RVR RNG VA  0248   46      10/ 19/ 23 1021.2R
YORKTOWN VA      0248   45 54  360/ 11/ 14 1020.7R
JAMESTOWN VA     0250          360/ 12/ 17   N/A
DOMINION TERM VA 0248   47      20/  2/  6 1020.9R
KIPTOPEKE VA     0248      54  360/ 15/ 20   N/A
CAPE HENRY VA    0248   49     360/ 22/ 25   N/A
WILLOUBY STN VA  0248   47     360/ 15/ 17 1020.4R
S CRANEY ISL VA  0248   48     360/ 13/ 16 1020.2R
CAPE HENRY BUOY  0300      59                N/A     5/ 5
1ST LANDING BUOY 0250   49      30/ 21/ 25 1019.9R
CAPE CHARLES BUO 0251      58                N/A     4/ 8
64NM E OF VA BCH 0250   53 62  350/ 21/ 25 1018.7R   9/ 7   2/21
DUCK PIER NC     0248   53 59   10/ 19/ 22 1018.8R
44100 DUCK FRF   0245      60                N/A     8/ 7   2/11
44056 DUCK FRF   0300      61                N/A     7/ 6   2/11
OREGON INLET NC  0248          360/ 13/ 21   N/A
HATTERAS NC      0248   55 60   30/ 15/ 24 1018.4R
DIAMOND SHLS NC  0300   60      10/ 19/ 25 1018.3
CAPE LOOKOUT NC  0300           20/ 12/ 15 1018.6R
$$




USA.gov is the U.S. government's official web portal to all federal, state and local government web resources and services.